This demonstration page uses our WeatherBlox Daily Observations layout. Learn more.

Left ArrowRight Arrow

44.8408, -93.29828

Hourly Observations for March 20, 2020

Temp ( °F °C ) Dew Point ( °F °C ) Humidity (%) Winds ( mph kmh ) Pressure ( in mb ) Visibility ( mi km ) Precip ( " mm )
12:53 am 00:53 Cloudy 32 0 24 -4.4 73 73 N 23 37 30.05 1018 10 16 0.00 0.00
1:53 am 01:53 Cloudy 30 -1.1 22 -5.6 72 72 N 22 35 30.09 1019 10 16 0.00 0.00
2:53 am 02:53 Cloudy 29 -1.7 19 -7.2 66 66 NNW 24 39 30.13 1020 10 16 0.00 0.00
3:53 am 03:53 Cloudy 27 -2.8 17 -8.3 66 66 N 23 37 30.18 1022 9 14 0.00 0.00
4:53 am 04:53 Partly Cloudy 26 -3.3 15 -9.4 63 63 NNW 23 37 30.22 1023 10 16 0.00 0.00
5:53 am 05:53 Clear 24 -4.4 13 -10.6 62 62 NNW 20 31 30.27 1025 10 16 0.00 0.00
6:53 am 06:53 Mostly Clear 22 -5.6 9 -12.8 57 57 NNW 24 39 30.34 1027 10 16 0.00 0.00
7:53 am 07:53 Sunny 20 -6.7 8 -13.3 60 60 NNW 17 28 30.39 1029 10 16 0.00 0.00
8:53 am 08:53 Sunny 22 -5.6 8 -13.3 55 55 NNW 22 35 30.42 1030 10 16 0.00 0.00
9:53 am 09:53 Sunny 23 -5 8 -13.3 53 53 N 15 24 30.45 1031 10 16 0.00 0.00
10:53 am 10:53 Sunny 24 -4.4 8 -13.3 50 50 N 17 28 30.47 1032 10 16 0.00 0.00
11:53 am 11:53 Mostly Sunny 28 -2.2 9 -12.8 44 44 N 16 26 30.49 1033 10 16 0.00 0.00
12:53 pm 12:53 Mostly Sunny 30 -1.1 10 -12.2 43 43 NNE 15 24 30.53 1034 10 16 0.00 0.00
1:53 pm 13:53 Mostly Sunny 31 -0.6 10 -12.2 42 42 NNW 7 11 30.54 1034 10 16 0.00 0.00
2:53 pm 14:53 Mostly Sunny 32 0 10 -12.2 40 40 NNW 8 13 30.54 1034 10 16 0.00 0.00
3:53 pm 15:53 Mostly Sunny 33 0.6 10 -12.2 38 38 N 7 11 30.55 1035 10 16 0.00 0.00
4:53 pm 16:53 Mostly Sunny 33 0.6 9 -12.8 36 36 N 9 15 30.55 1035 10 16 0.00 0.00
5:53 pm 17:53 Mostly Sunny 33 0.6 9 -12.8 36 36 NNW 10 17 30.56 1035 10 16 0.00 0.00
6:53 pm 18:53 Sunny 31 -0.6 8 -13.3 38 38 N 10 17 30.58 1036 10 16 0.00 0.00
7:53 pm 19:53 Clear 29 -1.7 7 -13.9 39 39 NNE 7 11 30.60 1036 10 16 0.00 0.00
8:53 pm 20:53 Clear 27 -2.8 7 -13.9 43 43 NNE 8 13 30.60 1036 10 16 0.00 0.00
9:53 pm 21:53 Clear 26 -3.3 7 -13.9 44 44 NNE 8 13 30.60 1036 10 16 0.00 0.00
10:53 pm 22:53 Clear 25 -3.9 7 -13.9 46 46 NE 5 7 30.61 1037 10 16 0.00 0.00
11:53 pm 23:53 Clear 24 -4.4 8 -13.3 50 50 NNW 3 6 30.62 1037 10 16 0.00 0.00

Powered by AerisWeather